Weather History for KFOE - December, 2013

Change the Weather History Date:

Thursday, December 12, 2013

  Actual Average Record
Temperature  
Mean Temperature 28 °F -  
Max Temperature 46 °F 42 °F 63 °F (1968)
Min Temperature 10 °F 22 °F -6 °F (1989)
Degree Days  
Heating Degree Days 37    
Moisture  
Dew Point 13 °F    
Average Humidity 54    
Maximum Humidity 72    
Minimum Humidity 31    
Precipitation  
Precipitation 0.00 in - - ()
Sea Level Pressure  
Sea Level Pressure 30.39 in    
Wind  
Wind Speed 9 mph (SSW)    
Max Wind Speed 17 mph    
Max Gust Speed 24 mph    
Visibility 10 miles    
Events      
Averages and records for this station are not official NWS values.
T = Trace of Precipitation, MM = Missing Value Source: NWS Daily Summary

Daily Weather History Graph

Daily Weather History Graph

Search for Another Location

Airport or City:

Trip Planner

Search our weather history database for the weather conditions in past years. The results will help you decide how hot, cold, wet, or windy it might be!

Date:

Astronomy

Dec. 12, 2013 Rise Set
Actual Time 7:32 AM CST 5:00 PM CST
Civil Twilight 7:02 AM CST 5:30 PM CST
Nautical Twilight 6:28 AM CST 6:04 PM CST
Astronomical Twilight 5:56 AM CST 6:36 PM CST
Moon 2:06 PM CST (12/12) 2:57 AM CST (12/12)
Length of Visible Light 10h 28m
Length of Day
9h 28m
Waxing Gibbous, 80% of the Moon is Illuminated
Dec 12
Waxing Gibbous
Dec 17
Full
Dec 25
Last Quarter
Jan 1
New
Jan 7
First Quarter

Hourly Weather History & Observations

Time (CST) Temp. Windchill Dew Point Humidity Pressure Visibility Wind Dir Wind Speed Gust Speed Precip Events Conditions
12:53 AM 10.0 °F 1.8 °F 1.9 °F 70% 30.61 in 10.0 mi SSE 4.6 mph - N/A   Clear
1:53 AM 10.9 °F -0.8 °F 3.0 °F 70% 30.58 in 10.0 mi South 8.1 mph - N/A   Clear
2:53 AM 12.0 °F 1.5 °F 3.9 °F 70% 30.56 in 10.0 mi South 6.9 mph - N/A   Clear
3:53 AM 14.0 °F 1.2 °F 5.0 °F 67% 30.54 in 10.0 mi SSW 10.4 mph - N/A   Clear
4:53 AM 12.9 °F 5.2 °F 3.9 °F 67% 30.53 in 10.0 mi South 4.6 mph - N/A   Clear
5:53 AM 14.0 °F 5.1 °F 5.0 °F 67% 30.51 in 10.0 mi South 5.8 mph - N/A   Clear
6:53 AM 15.1 °F 3.3 °F 6.1 °F 68% 30.51 in 10.0 mi SSW 9.2 mph - N/A   Clear
7:53 AM 17.1 °F 5.8 °F 7.0 °F 65% 30.50 in 10.0 mi SSW 9.2 mph - N/A   Clear
8:53 AM 21.9 °F 9.8 °F 10.0 °F 60% 30.50 in 10.0 mi SSW 12.7 mph - N/A   Clear
9:53 AM 28.9 °F 18.6 °F 12.0 °F 49% 30.49 in 10.0 mi SW 12.7 mph - N/A   Clear
10:53 AM 35.1 °F 25.9 °F 14.0 °F 42% 30.48 in 10.0 mi SW 13.8 mph - N/A   Clear
11:53 AM 39.9 °F 31.8 °F 16.0 °F 38% 30.42 in 10.0 mi SW 15.0 mph - N/A   Clear
12:53 PM 44.1 °F 36.5 °F 17.1 °F 34% 30.38 in 10.0 mi SSW 17.3 mph - N/A   Clear
1:53 PM 46.0 °F 39.3 °F 17.1 °F 31% 30.35 in 10.0 mi SW 16.1 mph 24.2 mph N/A   Clear
2:53 PM 46.9 °F - 18.0 °F 32% 30.32 in 10.0 mi SSW 15.0 mph - N/A   Clear
3:53 PM 46.0 °F 39.9 °F 18.0 °F 33% 30.29 in 10.0 mi SSW 13.8 mph - N/A   Clear
4:53 PM 41.0 °F 37.1 °F 18.0 °F 40% 30.28 in 10.0 mi SSW 5.8 mph - N/A   Clear
5:53 PM 35.1 °F 29.3 °F 18.0 °F 50% 30.28 in 10.0 mi South 6.9 mph - N/A   Clear
6:53 PM 32.0 °F 25.6 °F 17.1 °F 54% 30.26 in 10.0 mi SSE 6.9 mph - N/A   Clear
7:53 PM 36.0 °F 28.0 °F 17.1 °F 46% 30.25 in 10.0 mi South 11.5 mph - N/A   Clear
8:53 PM 34.0 °F 25.0 °F 18.0 °F 52% 30.22 in 10.0 mi South 12.7 mph - N/A   Clear
9:53 PM 33.1 °F 24.9 °F 19.0 °F 56% 30.20 in 10.0 mi South 10.4 mph - N/A   Clear
10:53 PM 30.9 °F 22.2 °F 21.0 °F 67% 30.18 in 10.0 mi South 10.4 mph - N/A   Clear
11:53 PM 30.0 °F 20.0 °F 21.9 °F 72% 30.16 in 10.0 mi South 12.7 mph - N/A   Clear